Date String (YYYY-MM-DD hh:mm:ss) UTC,Instrument flags,Ambient pressure (hPa),Sample flow (lpm),Bypass flow (lpm),Sample temperature (°C),Ambient temperature (°C),ASC tube jacket temperature (°C),LED temperature (°C),Box temperature (°C),Sample RH (%),Span deviation,Mass concentration (μg/m³),Mass concentration (μg/m³),Mass concentration (μg/m³)
DateTimeUTC,F1_M11,P_M11,Q1_M11,Q2_M11,T1_M11,T2_M11,T3_M11,T4_M11,T5_M11,U1_M11,ZSPAN_M11,X0_M11,X2_M11,X1_M11
2022-04-16 03:00:00,,0825.9,5.00,0.00,27.4,26.5,00.0,36.3,29.2,08.5,0000.0,0016.78,0004.76,0003.26
2022-04-16 03:01:00,,0826.0,5.00,0.00,27.4,26.5,00.0,36.3,29.3,08.5,0000.0,0016.12,0004.65,0003.23
2022-04-16 03:02:00,,0826.0,5.00,0.00,27.4,26.5,00.0,36.3,29.3,08.5,0000.0,0016.37,0004.63,0003.22
2022-04-16 03:03:00,,0826.1,4.99,0.00,27.4,26.5,00.0,36.3,29.3,08.5,0000.0,0017.54,0004.60,0003.20
2022-04-16 03:04:00,,0826.0,5.00,0.00,27.4,26.5,00.0,36.3,29.3,08.5,0000.0,0017.72,0004.58,0003.19
2022-04-16 03:05:00,,0826.0,5.00,0.00,27.4,26.6,00.0,36.3,29.3,08.5,0000.0,0017.11,0004.62,0003.19
2022-04-16 03:06:00,,0826.0,5.00,0.00,27.4,26.6,00.0,36.3,29.3,08.5,0000.0,0017.16,0004.68,0003.18
2022-04-16 03:07:00,,0826.2,5.00,0.00,27.5,26.6,00.0,36.3,29.3,08.5,0000.0,0017.35,0004.69,0003.19
2022-04-16 03:08:00,,0826.1,5.01,0.00,27.5,26.6,00.0,36.3,29.3,08.5,0000.0,0016.45,0004.67,0003.19
2022-04-16 03:09:00,,0826.1,4.99,0.00,27.5,26.6,00.0,36.3,29.3,08.5,0000.0,0016.87,0004.71,0003.20
2022-04-16 03:10:00,,0826.1,4.99,0.00,27.5,26.6,00.0,36.3,29.3,08.4,0000.0,0017.33,0004.75,0003.21
2022-04-16 03:11:00,,0826.1,5.01,0.00,27.5,26.6,00.0,36.3,29.3,08.4,0000.0,0017.03,0004.82,0003.22
2022-04-16 03:12:00,,0826.1,5.01,0.00,27.5,26.6,00.0,36.3,29.3,08.4,0000.0,0018.28,0004.92,0003.23
2022-04-16 03:13:00,,0826.2,5.00,0.00,27.5,26.6,00.0,36.3,29.3,08.4,0000.0,0018.02,0004.93,0003.24
2022-04-16 03:14:00,,0826.2,5.00,0.00,27.5,26.6,00.0,36.3,29.3,08.4,0000.0,0016.78,0004.91,0003.24
2022-04-16 03:15:00,,0826.2,4.99,0.00,27.5,26.6,00.0,36.3,29.3,08.4,0000.0,0015.99,0004.88,0003.23
2022-04-16 03:16:00,,0826.3,4.99,0.00,27.5,26.6,00.0,36.3,29.3,08.4,0000.0,0016.54,0004.89,0003.23
2022-04-16 03:17:00,,0826.3,4.99,0.00,27.5,26.6,00.0,36.3,29.3,08.4,0000.0,0016.44,0004.88,0003.21
2022-04-16 03:18:00,,0826.3,5.01,0.00,27.5,26.6,00.0,36.3,29.3,08.4,0000.0,0015.86,0004.83,0003.18
2022-04-16 03:19:00,,0826.4,5.01,0.00,27.5,26.6,00.0,36.3,29.3,08.4,0000.0,0016.05,0004.84,0003.17
2022-04-16 03:20:00,,0826.4,4.99,0.00,27.5,26.5,00.0,36.3,29.3,08.4,0000.0,0015.49,0004.80,0003.15
2022-04-16 03:21:00,,0826.4,5.00,0.00,27.5,26.5,00.0,36.3,29.3,08.4,0000.0,0015.01,0004.73,0003.13
2022-04-16 03:22:00,,0826.4,4.99,0.00,27.5,26.5,00.0,36.3,29.3,08.4,0000.0,0015.11,0004.67,0003.12
2022-04-16 03:23:00,,0826.5,5.00,0.00,27.5,26.5,00.0,36.3,29.3,08.4,0000.0,0014.45,0004.62,0003.08
2022-04-16 03:24:00,,0826.5,5.00,0.00,27.5,26.5,00.0,36.3,29.3,08.3,0000.0,0014.47,0004.58,0003.05
2022-04-16 03:25:00,,0826.5,5.00,0.00,27.5,26.5,00.0,36.3,29.3,08.3,0000.0,0015.68,0004.59,0003.03
2022-04-16 03:26:00,,0826.5,5.00,0.00,27.5,26.5,00.0,36.3,29.3,08.3,0000.0,0016.32,0004.61,0003.02
2022-04-16 03:27:00,,0826.5,5.01,0.00,27.5,26.5,00.0,36.3,29.3,08.3,0000.0,0015.98,0004.58,0003.01
2022-04-16 03:28:00,,0826.5,5.00,0.00,27.5,26.5,00.0,36.3,29.3,08.3,0000.0,0015.92,0004.54,0003.00
2022-04-16 03:29:00,,0826.5,5.01,0.00,27.4,26.5,00.0,36.3,29.3,08.3,0000.0,0016.02,0004.53,0003.01
2022-04-16 03:30:00,,0826.5,5.00,0.00,27.4,26.5,00.0,36.3,29.2,08.3,0000.0,0016.64,0004.52,0003.00
2022-04-16 03:31:00,,0826.5,5.00,0.00,27.4,26.5,00.0,36.3,29.2,08.2,0000.0,0017.36,0004.56,0003.03
2022-04-16 03:32:00,,0826.5,5.00,0.00,27.4,26.4,00.0,36.3,29.2,08.2,0000.0,0017.67,0004.57,0003.03
2022-04-16 03:33:00,,0826.5,5.00,0.00,27.4,26.4,00.0,36.3,29.2,08.2,0000.0,0017.62,0004.56,0003.03
2022-04-16 03:34:00,,0826.5,5.01,0.00,27.4,26.5,00.0,36.3,29.2,08.3,0000.0,0017.55,0004.60,0003.02
2022-04-16 03:35:00,,0826.5,5.00,0.00,27.4,26.4,00.0,36.3,29.2,08.2,0000.0,0017.66,0004.63,0003.01
2022-04-16 03:36:00,,0826.5,5.00,0.00,27.4,26.4,00.0,36.3,29.2,08.3,0000.0,0016.42,0004.59,0003.01
2022-04-16 03:37:00,,0826.6,4.99,0.00,27.4,26.4,00.0,36.3,29.2,08.3,0000.0,0015.52,0004.54,0003.00
2022-04-16 03:38:00,,0826.6,5.00,0.00,27.4,26.3,00.0,36.3,29.2,08.3,0000.0,0015.12,0004.53,0003.00
2022-04-16 03:39:00,,0826.6,5.00,0.00,27.4,26.3,00.0,36.3,29.1,08.3,0000.0,0014.72,0004.55,0003.00
2022-04-16 03:40:00,,0826.6,5.00,0.00,27.3,26.4,00.0,36.3,29.1,08.3,0000.0,0014.50,0004.56,0002.98
2022-04-16 03:41:00,,0826.6,5.01,0.00,27.3,26.4,00.0,36.3,29.1,08.3,0000.0,0014.27,0004.54,0002.97
2022-04-16 03:42:00,,0826.6,5.00,0.00,27.3,26.3,00.0,36.3,29.1,08.3,0000.0,0013.76,0004.49,0002.94
2022-04-16 03:43:00,,0826.6,5.01,0.00,27.3,26.3,00.0,36.3,29.1,08.3,0000.0,0013.19,0004.45,0002.92
2022-04-16 03:44:00,,0826.6,5.01,0.00,27.3,26.3,00.0,36.2,29.1,08.3,0000.0,0012.59,0004.45,0002.93
2022-04-16 03:45:00,,0826.6,5.00,0.00,27.3,26.3,00.0,36.2,29.1,08.3,0000.0,0012.52,0004.36,0002.92
2022-04-16 03:46:00,,0826.7,5.00,0.00,27.3,26.3,00.0,36.2,29.1,08.3,0000.0,0012.41,0004.31,0002.92
2022-04-16 03:47:00,,0826.7,5.00,0.00,27.3,26.4,00.0,36.2,29.1,08.3,0000.0,0012.86,0004.30,0002.92
2022-04-16 03:48:00,,0826.7,5.00,0.00,27.3,26.3,00.0,36.2,29.1,08.3,0000.0,0014.15,0004.30,0002.94
2022-04-16 03:49:00,,0826.7,5.00,0.00,27.3,26.4,00.0,36.2,29.1,08.3,0000.0,0014.23,0004.32,0002.94
2022-04-16 03:50:00,,0826.7,4.99,0.00,27.3,26.3,00.0,36.2,29.1,08.3,0000.0,0014.23,0004.32,0002.94
2022-04-16 03:51:00,,0826.7,5.00,0.00,27.3,26.3,00.0,36.2,29.0,08.3,0000.0,0014.06,0004.28,0002.94
2022-04-16 03:52:00,,0826.8,5.00,0.00,27.3,26.3,00.0,36.2,29.0,08.3,0000.0,0013.62,0004.24,0002.95
2022-04-16 03:53:00,,0826.8,5.00,0.00,27.2,26.2,00.0,36.2,29.0,08.3,0000.0,0013.37,0004.24,0002.94
2022-04-16 03:54:00,,0826.8,4.99,0.00,27.2,26.2,00.0,36.2,29.0,08.3,0000.0,0014.22,0004.31,0002.94
2022-04-16 03:55:00,,0826.8,4.99,0.00,27.2,26.3,00.0,36.2,29.0,08.3,0000.0,0014.10,0004.27,0002.93
2022-04-16 03:56:00,,0826.8,5.01,0.00,27.2,26.3,00.0,36.2,29.0,08.3,0000.0,0013.57,0004.31,0002.95
2022-04-16 03:57:00,,0826.8,5.01,0.00,27.2,26.2,00.0,36.2,28.9,08.3,0000.0,0013.77,0004.34,0002.95
2022-04-16 03:58:00,,0826.8,4.99,0.00,27.1,26.1,00.0,36.1,28.9,08.2,0000.0,0013.69,0004.38,0002.94
2022-04-16 03:59:00,,0826.8,5.00,0.00,27.1,26.2,00.0,36.1,28.8,08.2,0000.0,0012.79,0004.48,0002.93
